Time,TemperatureF,DewpointF,PressureIn,WindDirection,WindDirectionDegrees,WindSpeedMPH,WindSpeedGustMPH,Humidity,HourlyPrecipIn,Conditions,Clouds,dailyrainin,SoftwareType,DateUTC
2013-03-15 00:02:00,47.5,37.1,29.95,NNE,31,0.0,0.0,67,0.00,,SKC,0.00,VWS V14.01,2013-03-15 05:02:00,
2013-03-15 00:07:00,47.3,37.3,29.95,NNE,31,0.0,0.0,68,0.00,,SKC,0.00,VWS V14.01,2013-03-15 05:07:00,
2013-03-15 00:12:00,47.2,37.2,29.95,NNE,31,0.0,0.0,68,0.00,,SKC,0.00,VWS V14.01,2013-03-15 05:12:00,
2013-03-15 00:17:00,47.1,37.5,29.95,NNE,31,0.0,0.0,69,0.00,,SKC,0.00,VWS V14.01,2013-03-15 05:17:00,
2013-03-15 00:22:00,47.1,37.5,29.94,NNE,31,0.0,0.0,69,0.00,,SKC,0.00,VWS V14.01,2013-03-15 05:22:00,
2013-03-15 00:27:00,46.9,36.9,29.94,NNE,31,0.0,0.0,68,0.00,,SKC,0.00,VWS V14.01,2013-03-15 05:27:00,
2013-03-15 00:32:00,46.8,37.2,29.93,NNE,31,0.0,0.0,69,0.00,,SKC,0.00,VWS V14.01,2013-03-15 05:32:00,
2013-03-15 00:37:00,46.7,37.5,29.93,NNE,31,0.0,0.0,70,0.00,,SKC,0.00,VWS V14.01,2013-03-15 05:37:00,
2013-03-15 00:42:00,46.7,37.5,29.93,NNE,31,0.0,0.0,70,0.00,,SKC,0.00,VWS V14.01,2013-03-15 05:42:00,
2013-03-15 00:47:00,46.5,37.3,29.93,NNE,31,0.0,0.0,70,0.00,,SKC,0.00,VWS V14.01,2013-03-15 05:47:00,
2013-03-15 00:52:00,46.4,37.5,29.93,NNE,31,0.0,0.0,71,0.00,,SKC,0.00,VWS V14.01,2013-03-15 05:52:00,
2013-03-15 00:57:00,46.3,37.4,29.93,NNE,31,0.0,0.0,71,0.00,,SKC,0.00,VWS V14.01,2013-03-15 05:57:00,
2013-03-15 01:02:00,46.1,36.9,29.93,NNE,31,0.0,0.0,70,0.00,,SKC,0.00,VWS V14.01,2013-03-15 06:02:00,
2013-03-15 01:07:00,45.9,37.0,29.93,NNE,31,0.0,0.0,71,0.00,,SKC,0.00,VWS V14.01,2013-03-15 06:07:00,
2013-03-15 01:12:00,45.7,36.8,29.93,NNE,31,0.0,0.0,71,0.00,,SKC,0.00,VWS V14.01,2013-03-15 06:12:00,
2013-03-15 01:17:00,45.6,37.1,29.93,NNE,31,0.0,0.0,72,0.00,,SKC,0.00,VWS V14.01,2013-03-15 06:17:00,
2013-03-15 01:22:00,45.6,37.5,29.92,NNE,31,0.0,0.0,73,0.00,,SKC,0.00,VWS V14.01,2013-03-15 06:22:00,
2013-03-15 01:27:00,45.6,37.5,29.92,NNE,31,0.0,0.0,73,0.00,,SKC,0.00,VWS V14.01,2013-03-15 06:27:00,
2013-03-15 01:32:00,45.7,37.9,29.92,NNE,31,0.0,0.0,74,0.00,,SKC,0.00,VWS V14.01,2013-03-15 06:32:00,
2013-03-15 01:37:00,46.0,37.8,29.92,NNE,31,0.0,0.0,73,0.00,,SKC,0.00,VWS V14.01,2013-03-15 06:37:00,
2013-03-15 01:42:00,46.1,37.9,29.92,NNE,31,0.0,0.0,73,0.00,,SKC,0.00,VWS V14.01,2013-03-15 06:42:00,
2013-03-15 01:47:00,46.4,38.2,29.91,NNE,31,0.0,0.0,73,0.00,,SKC,0.00,VWS V14.01,2013-03-15 06:47:00,
2013-03-15 01:52:00,46.7,38.2,29.91,NNE,31,0.0,0.0,72,0.00,,SKC,0.00,VWS V14.01,2013-03-15 06:52:00,
2013-03-15 01:57:00,47.2,38.3,29.91,NNE,31,0.0,0.0,71,0.00,,SKC,0.00,VWS V14.01,2013-03-15 06:57:00,
2013-03-15 02:02:00,47.7,38.4,29.91,NNE,31,0.0,0.0,70,0.00,,SKC,0.00,VWS V14.01,2013-03-15 07:02:00,
2013-03-15 02:07:00,48.1,38.0,29.91,NNE,31,0.0,0.0,68,0.00,,SKC,0.00,VWS V14.01,2013-03-15 07:07:00,
2013-03-15 02:12:00,48.5,38.4,29.90,NNE,31,0.0,0.0,68,0.00,,SKC,0.00,VWS V14.01,2013-03-15 07:12:00,
2013-03-15 02:17:00,48.7,38.2,29.91,NNE,31,0.0,0.0,67,0.00,,SKC,0.00,VWS V14.01,2013-03-15 07:17:00,
2013-03-15 02:22:00,48.9,38.1,29.90,NNE,31,0.0,0.0,66,0.00,,SKC,0.00,VWS V14.01,2013-03-15 07:22:00,
2013-03-15 02:27:00,49.1,37.9,29.90,NNE,31,0.0,0.0,65,0.00,,SKC,0.00,VWS V14.01,2013-03-15 07:27:00,
2013-03-15 02:32:00,49.2,38.0,29.90,NNE,31,0.0,0.0,65,0.00,,SKC,0.00,VWS V14.01,2013-03-15 07:32:00,
2013-03-15 02:37:00,49.3,38.0,29.90,NNE,31,0.0,1.0,65,0.00,,SKC,0.00,VWS V14.01,2013-03-15 07:37:00,
2013-03-15 02:42:00,49.5,37.8,29.89,NNE,31,0.0,1.0,64,0.00,,SKC,0.00,VWS V14.01,2013-03-15 07:42:00,
2013-03-15 02:47:00,49.5,37.8,29.89,NNE,31,0.0,1.0,64,0.00,,SKC,0.00,VWS V14.01,2013-03-15 07:47:00,
2013-03-15 02:53:00,49.5,37.8,29.89,NNE,31,0.0,1.0,64,0.00,,SKC,0.00,VWS V14.01,2013-03-15 07:53:00,
2013-03-15 02:58:00,49.4,37.8,29.89,NNE,31,0.0,0.0,64,0.00,,SKC,0.00,VWS V14.01,2013-03-15 07:58:00,
2013-03-15 03:03:00,49.3,37.7,29.89,NNE,31,0.0,0.0,64,0.00,,SKC,0.00,VWS V14.01,2013-03-15 08:03:00,
2013-03-15 03:08:00,49.2,37.6,29.88,NNE,31,0.0,0.0,64,0.00,,SKC,0.00,VWS V14.01,2013-03-15 08:08:00,
2013-03-15 03:13:00,49.1,37.5,29.87,NNE,31,0.0,0.0,64,0.00,,SKC,0.00,VWS V14.01,2013-03-15 08:13:00,
2013-03-15 03:18:00,48.9,37.3,29.87,NNE,31,0.0,0.0,64,0.00,,SKC,0.00,VWS V14.01,2013-03-15 08:18:00,
2013-03-15 03:23:00,48.8,37.6,29.87,NNE,31,0.0,0.0,65,0.00,,SKC,0.00,VWS V14.01,2013-03-15 08:23:00,
2013-03-15 03:28:00,48.6,37.4,29.86,NNE,31,0.0,0.0,65,0.00,,SKC,0.00,VWS V14.01,2013-03-15 08:28:00,
2013-03-15 03:33:00,48.4,37.6,29.86,NNE,32,0.0,0.0,66,0.00,,SKC,0.00,VWS V14.01,2013-03-15 08:33:00,
2013-03-15 03:38:00,48.2,37.4,29.86,NNE,32,0.0,0.0,66,0.00,,SKC,0.00,VWS V14.01,2013-03-15 08:38:00,
2013-03-15 03:43:00,48.0,37.2,29.86,NNE,32,0.0,0.0,66,0.00,,SKC,0.00,VWS V14.01,2013-03-15 08:43:00,
2013-03-15 03:48:00,47.9,37.1,29.86,NNE,32,0.0,0.0,66,0.00,,SKC,0.00,VWS V14.01,2013-03-15 08:48:00,
2013-03-15 03:53:00,47.7,36.9,29.86,NNE,32,0.0,0.0,66,0.00,,SKC,0.00,VWS V14.01,2013-03-15 08:53:00,
2013-03-15 03:58:00,47.4,37.0,29.85,NNE,32,0.0,0.0,67,0.00,,SKC,0.00,VWS V14.01,2013-03-15 08:58:00,
2013-03-15 04:03:00,47.1,37.1,29.85,NNE,32,0.0,0.0,68,0.00,,SKC,0.00,VWS V14.01,2013-03-15 09:03:00,
2013-03-15 04:08:00,46.9,36.9,29.84,NNE,32,0.0,0.0,68,0.00,,SKC,0.00,VWS V14.01,2013-03-15 09:08:00,
2013-03-15 04:13:00,46.8,37.2,29.84,NNE,32,0.0,0.0,69,0.00,,SKC,0.00,VWS V14.01,2013-03-15 09:13:00,
2013-03-15 04:18:00,46.7,37.1,29.84,NNE,32,0.0,0.0,69,0.00,,SKC,0.00,VWS V14.01,2013-03-15 09:18:00,
2013-03-15 04:23:00,46.6,37.0,29.84,NNE,32,0.0,0.0,69,0.00,,SKC,0.00,VWS V14.01,2013-03-15 09:23:00,
2013-03-15 04:28:00,46.5,36.9,29.84,NNE,32,0.0,0.0,69,0.00,,SKC,0.00,VWS V14.01,2013-03-15 09:28:00,
2013-03-15 04:33:00,46.4,36.8,29.84,NNE,32,0.0,0.0,69,0.00,,SKC,0.00,VWS V14.01,2013-03-15 09:33:00,
2013-03-15 04:38:00,46.2,36.6,29.83,NNE,32,0.0,0.0,69,0.00,,SKC,0.00,VWS V14.01,2013-03-15 09:38:00,
2013-03-15 04:43:00,46.0,36.8,29.83,NNE,32,0.0,0.0,70,0.00,,SKC,0.00,VWS V14.01,2013-03-15 09:43:00,
2013-03-15 04:48:00,45.7,36.5,29.83,NNE,32,0.0,0.0,70,0.00,,SKC,0.00,VWS V14.01,2013-03-15 09:48:00,
2013-03-15 04:53:00,45.5,36.7,29.82,NNE,32,0.0,0.0,71,0.00,,SKC,0.00,VWS V14.01,2013-03-15 09:53:00,
2013-03-15 04:58:00,45.4,36.6,29.82,NNE,32,0.0,0.0,71,0.00,,SKC,0.00,VWS V14.01,2013-03-15 09:58:00,
2013-03-15 05:03:00,45.3,36.8,29.82,NNE,32,0.0,0.0,72,0.00,,SKC,0.00,VWS V14.01,2013-03-15 10:03:00,
2013-03-15 05:08:00,45.3,36.8,29.82,NNE,32,0.0,0.0,72,0.00,,SKC,0.00,VWS V14.01,2013-03-15 10:08:00,
2013-03-15 05:13:00,45.3,36.8,29.82,NNE,32,0.0,0.0,72,0.00,,SKC,0.00,VWS V14.01,2013-03-15 10:13:00,
2013-03-15 05:18:00,45.4,36.9,29.82,NNE,32,0.0,0.0,72,0.00,,SKC,0.00,VWS V14.01,2013-03-15 10:18:00,
2013-03-15 05:23:00,45.5,37.0,29.82,NNE,32,0.0,0.0,72,0.00,,SKC,0.00,VWS V14.01,2013-03-15 10:23:00,
2013-03-15 05:28:00,45.6,36.8,29.82,NNE,32,0.0,0.0,71,0.00,,SKC,0.00,VWS V14.01,2013-03-15 10:28:00,
2013-03-15 05:33:00,45.7,36.8,29.81,NNE,32,0.0,0.0,71,0.00,,SKC,0.00,VWS V14.01,2013-03-15 10:33:00,
2013-03-15 05:38:00,45.8,37.0,29.81,NNE,32,0.0,0.0,71,0.00,,SKC,0.00,VWS V14.01,2013-03-15 10:38:00,
2013-03-15 05:43:00,45.8,37.0,29.81,NNE,32,0.0,0.0,71,0.00,,SKC,0.00,VWS V14.01,2013-03-15 10:43:00,
2013-03-15 05:48:00,45.9,37.0,29.81,NNE,32,0.0,0.0,71,0.00,,SKC,0.00,VWS V14.01,2013-03-15 10:48:00,
2013-03-15 05:53:00,45.9,37.0,29.81,NNE,32,0.0,0.0,71,0.00,,SKC,0.00,VWS V14.01,2013-03-15 10:53:00,
2013-03-15 05:58:00,45.9,37.0,29.81,NNE,32,0.0,1.0,71,0.00,,SKC,0.00,VWS V14.01,2013-03-15 10:58:00,
2013-03-15 06:03:00,45.8,37.0,29.81,NNE,33,0.0,0.0,71,0.00,,SKC,0.00,VWS V14.01,2013-03-15 11:03:00,
2013-03-15 06:08:00,45.7,36.8,29.81,NE,36,0.0,0.0,71,0.00,,SKC,0.00,VWS V14.01,2013-03-15 11:08:00,
2013-03-15 06:13:00,45.6,36.8,29.80,NE,39,0.0,1.0,71,0.00,,SKC,0.00,VWS V14.01,2013-03-15 11:13:00,
2013-03-15 06:18:00,45.4,36.6,29.80,NE,39,0.0,0.0,71,0.00,,SKC,0.00,VWS V14.01,2013-03-15 11:18:00,
2013-03-15 06:23:00,45.2,36.7,29.80,NE,39,0.0,0.0,72,0.00,,SKC,0.00,VWS V14.01,2013-03-15 11:23:00,
2013-03-15 06:28:00,45.0,36.5,29.80,NE,39,0.0,0.0,72,0.00,,SKC,0.00,VWS V14.01,2013-03-15 11:28:00,
2013-03-15 06:33:00,44.7,36.2,29.80,NE,43,2.0,3.0,72,0.00,,SKC,0.00,VWS V14.01,2013-03-15 11:33:00,
2013-03-15 06:38:00,44.4,36.3,29.80,NE,55,0.0,4.0,73,0.00,,SKC,0.00,VWS V14.01,2013-03-15 11:38:00,
2013-03-15 06:43:00,44.2,36.1,29.80,NE,55,0.0,4.0,73,0.00,,SKC,0.00,VWS V14.01,2013-03-15 11:43:00,
2013-03-15 06:49:00,43.8,36.1,29.79,NE,55,0.0,1.0,74,0.00,,SKC,0.00,VWS V14.01,2013-03-15 11:49:00,
2013-03-15 06:54:00,43.5,35.8,29.78,NE,55,0.0,1.0,74,0.00,,SKC,0.00,VWS V14.01,2013-03-15 11:54:00,
2013-03-15 06:59:00,43.3,35.9,29.79,NE,55,0.0,0.0,75,0.00,,SKC,0.00,VWS V14.01,2013-03-15 11:59:00,
2013-03-15 07:04:00,43.1,35.7,29.78,NE,55,0.0,0.0,75,0.00,,SKC,0.00,VWS V14.01,2013-03-15 12:04:00,
2013-03-15 07:09:00,43.1,36.1,29.78,NE,55,0.0,0.0,76,0.00,,SKC,0.00,VWS V14.01,2013-03-15 12:09:00,
2013-03-15 07:14:00,43.1,36.1,29.77,NE,55,0.0,0.0,76,0.00,,SKC,0.00,VWS V14.01,2013-03-15 12:14:00,
2013-03-15 07:19:00,43.1,36.1,29.77,NE,55,0.0,0.0,76,0.00,,SKC,0.00,VWS V14.01,2013-03-15 12:19:00,
2013-03-15 07:24:00,43.1,36.1,29.77,NE,55,0.0,1.0,76,0.00,,SKC,0.00,VWS V14.01,2013-03-15 12:24:00,
2013-03-15 07:29:00,43.0,36.0,29.77,NE,55,0.0,0.0,76,0.00,,SKC,0.00,VWS V14.01,2013-03-15 12:29:00,
2013-03-15 07:34:00,42.9,35.9,29.77,NE,55,0.0,3.0,76,0.00,,SKC,0.00,VWS V14.01,2013-03-15 12:34:00,
2013-03-15 07:39:00,42.8,36.1,29.77,NE,55,0.0,0.0,77,0.00,,SKC,0.00,VWS V14.01,2013-03-15 12:39:00,
2013-03-15 07:44:00,42.7,36.0,29.77,NE,55,0.0,0.0,77,0.00,,SKC,0.00,VWS V14.01,2013-03-15 12:44:00,
2013-03-15 07:49:00,42.7,36.0,29.76,NE,55,0.0,0.0,77,0.00,,SKC,0.00,VWS V14.01,2013-03-15 12:49:00,
2013-03-15 07:54:00,42.7,36.0,29.76,NE,55,0.0,1.0,77,0.00,,SKC,0.00,VWS V14.01,2013-03-15 12:54:00,
2013-03-15 07:59:00,42.8,36.1,29.76,NE,56,0.0,1.0,77,0.00,,SKC,0.00,VWS V14.01,2013-03-15 12:59:00,
2013-03-15 08:04:00,42.9,36.2,29.76,ENE,57,2.0,2.0,77,0.00,,SKC,0.00,VWS V14.01,2013-03-15 13:04:00,
2013-03-15 08:09:00,43.1,36.4,29.76,ENE,61,0.0,3.0,77,0.00,,SKC,0.00,VWS V14.01,2013-03-15 13:09:00,
2013-03-15 08:14:00,43.3,36.6,29.76,ENE,62,0.0,3.0,77,0.00,,SKC,0.00,VWS V14.01,2013-03-15 13:14:00,
2013-03-15 08:19:00,43.5,36.8,29.75,ENE,65,0.0,0.0,77,0.00,,SKC,0.00,VWS V14.01,2013-03-15 13:19:00,
2013-03-15 08:24:00,43.7,37.3,29.75,ENE,69,0.0,0.0,78,0.00,,SKC,0.00,VWS V14.01,2013-03-15 13:24:00,
2013-03-15 08:29:00,44.0,37.6,29.74,ENE,71,0.0,3.0,78,0.00,,SKC,0.00,VWS V14.01,2013-03-15 13:29:00,
2013-03-15 08:34:00,44.4,38.0,29.74,East,84,2.0,5.0,78,0.00,,SKC,0.00,VWS V14.01,2013-03-15 13:34:00,
2013-03-15 08:39:00,44.8,38.4,29.74,East,84,0.0,2.0,78,0.00,,SKC,0.00,VWS V14.01,2013-03-15 13:39:00,
2013-03-15 08:44:00,45.2,38.4,29.74,East,87,0.0,0.0,77,0.00,,SKC,0.00,VWS V14.01,2013-03-15 13:44:00,
2013-03-15 08:49:00,45.5,38.7,29.74,East,89,0.0,0.0,77,0.00,,SKC,0.00,VWS V14.01,2013-03-15 13:49:00,
2013-03-15 08:54:00,45.9,38.8,29.74,East,90,0.0,0.0,76,0.00,,SKC,0.00,VWS V14.01,2013-03-15 13:54:00,
2013-03-15 08:59:00,46.3,38.8,29.74,East,90,0.0,0.0,75,0.00,,SKC,0.00,VWS V14.01,2013-03-15 13:59:00,
2013-03-15 09:04:00,46.6,39.1,29.74,East,93,0.0,0.0,75,0.00,,SKC,0.00,VWS V14.01,2013-03-15 14:04:00,
2013-03-15 09:09:00,47.1,39.6,29.73,East,93,0.0,1.0,75,0.00,,SKC,0.00,VWS V14.01,2013-03-15 14:09:00,
2013-03-15 09:14:00,47.6,39.7,29.73,East,96,2.0,2.0,74,0.00,,SKC,0.00,VWS V14.01,2013-03-15 14:14:00,
2013-03-15 09:19:00,48.3,40.4,29.73,East,97,0.0,4.0,74,0.00,,SKC,0.00,VWS V14.01,2013-03-15 14:19:00,
2013-03-15 09:24:00,48.9,40.6,29.73,ESE,103,0.0,1.0,73,0.00,,SKC,0.00,VWS V14.01,2013-03-15 14:24:00,
2013-03-15 09:29:00,49.4,40.8,29.73,ESE,109,1.0,1.0,72,0.00,,SKC,0.00,VWS V14.01,2013-03-15 14:29:00,
2013-03-15 09:34:00,50.0,41.3,29.73,SE,131,3.0,3.0,72,0.00,,SKC,0.00,VWS V14.01,2013-03-15 14:34:00,
2013-03-15 09:39:00,50.9,42.2,29.73,SE,140,0.0,5.0,72,0.00,,SKC,0.00,VWS V14.01,2013-03-15 14:39:00,
2013-03-15 09:44:00,52.0,42.5,29.73,SSE,155,0.0,1.0,70,0.00,,SKC,0.00,VWS V14.01,2013-03-15 14:44:00,
2013-03-15 09:49:00,52.8,42.5,29.72,SSE,159,0.0,4.0,68,0.00,,SKC,0.00,VWS V14.01,2013-03-15 14:49:00,
2013-03-15 09:54:00,53.3,42.6,29.72,SSE,162,0.0,0.0,67,0.00,,SKC,0.00,VWS V14.01,2013-03-15 14:54:00,
2013-03-15 09:59:00,54.0,43.3,29.72,SSE,166,2.0,4.0,67,0.00,,SKC,0.00,VWS V14.01,2013-03-15 14:59:00,
2013-03-15 10:04:00,54.5,43.0,29.72,South,170,2.0,5.0,65,0.00,,SKC,0.00,VWS V14.01,2013-03-15 15:04:00,
2013-03-15 10:09:00,55.2,43.2,29.71,South,173,0.0,5.0,64,0.00,,SKC,0.00,VWS V14.01,2013-03-15 15:09:00,
2013-03-15 10:14:00,55.8,43.4,29.71,South,179,1.0,1.0,63,0.00,,SKC,0.00,VWS V14.01,2013-03-15 15:14:00,
2013-03-15 10:19:00,56.7,44.3,29.71,South,189,0.0,6.0,63,0.00,,SKC,0.00,VWS V14.01,2013-03-15 15:19:00,
2013-03-15 10:24:00,57.8,44.5,29.70,SSW,194,0.0,0.0,61,0.00,,SKC,0.00,VWS V14.01,2013-03-15 15:24:00,
2013-03-15 10:29:00,59.0,45.2,29.70,SSW,197,0.0,3.0,60,0.00,,SKC,0.00,VWS V14.01,2013-03-15 15:29:00,
2013-03-15 10:34:00,60.2,45.4,29.70,SSW,200,0.0,0.0,58,0.00,,SKC,0.00,VWS V14.01,2013-03-15 15:34:00,
2013-03-15 10:39:00,61.4,46.0,29.69,SSW,198,1.0,3.0,57,0.00,,SKC,0.00,VWS V14.01,2013-03-15 15:39:00,
2013-03-15 10:44:00,62.3,46.4,29.70,SSW,198,0.0,0.0,56,0.00,,SKC,0.00,VWS V14.01,2013-03-15 15:44:00,
2013-03-15 10:49:00,63.0,46.1,29.69,SSW,201,0.0,5.0,54,0.00,,SKC,0.00,VWS V14.01,2013-03-15 15:49:00,
2013-03-15 10:54:00,63.7,45.8,29.69,SW,217,0.0,2.0,52,0.00,,SKC,0.00,VWS V14.01,2013-03-15 15:54:00,
2013-03-15 10:59:00,64.5,46.5,29.69,SSW,213,0.0,4.0,52,0.00,,SKC,0.00,VWS V14.01,2013-03-15 15:59:00,
2013-03-15 11:04:00,65.6,47.0,29.68,SW,217,0.0,2.0,51,0.00,,SKC,0.00,VWS V14.01,2013-03-15 16:04:00,
2013-03-15 11:09:00,66.7,46.4,29.69,WSW,246,4.0,8.0,48,0.00,,SKC,0.00,VWS V14.01,2013-03-15 16:09:00,
2013-03-15 11:15:00,67.5,47.1,29.69,WSW,239,0.0,1.0,48,0.00,,SKC,0.00,VWS V14.01,2013-03-15 16:15:00,
2013-03-15 11:20:00,68.3,47.3,29.68,SW,230,0.0,5.0,47,0.00,,SKC,0.00,VWS V14.01,2013-03-15 16:20:00,
2013-03-15 11:25:00,69.1,46.9,29.68,WSW,246,0.0,5.0,45,0.00,,SKC,0.00,VWS V14.01,2013-03-15 16:25:00,
2013-03-15 11:30:00,69.7,47.4,29.68,SW,236,0.0,11.0,45,0.00,,SKC,0.00,VWS V14.01,2013-03-15 16:30:00,
2013-03-15 11:35:00,71.0,48.0,29.67,SW,231,2.0,3.0,44,0.00,,SKC,0.00,VWS V14.01,2013-03-15 16:35:00,
2013-03-15 11:40:00,72.2,47.2,29.67,SW,234,0.0,5.0,41,0.00,,SKC,0.00,VWS V14.01,2013-03-15 16:40:00,
2013-03-15 11:45:00,73.1,47.4,29.67,WSW,243,0.0,5.0,40,0.00,,SKC,0.00,VWS V14.01,2013-03-15 16:45:00,
2013-03-15 11:50:00,73.6,47.1,29.67,SW,225,4.0,12.0,39,0.00,,SKC,0.00,VWS V14.01,2013-03-15 16:50:00,
2013-03-15 11:55:00,74.2,47.0,29.67,SW,236,1.0,5.0,38,0.00,,SKC,0.00,VWS V14.01,2013-03-15 16:55:00,
2013-03-15 12:02:00,74.9,45.4,29.67,West,262,4.0,4.0,35,0.00,,SKC,0.00,VWS V14.01,2013-03-15 17:02:00,
2013-03-15 12:07:00,75.4,45.1,29.67,WSW,242,0.0,13.0,34,0.00,,SKC,0.00,VWS V14.01,2013-03-15 17:07:00,
2013-03-15 12:12:00,75.6,45.3,29.66,WSW,238,3.0,13.0,34,0.00,,SKC,0.00,VWS V14.01,2013-03-15 17:12:00,
2013-03-15 12:17:00,75.8,45.5,29.66,WSW,238,6.0,7.0,34,0.00,,SKC,0.00,VWS V14.01,2013-03-15 17:17:00,
2013-03-15 12:23:00,76.0,45.6,29.66,SW,229,5.0,10.0,34,0.00,,SKC,0.00,VWS V14.01,2013-03-15 17:23:00,
2013-03-15 12:28:00,75.8,45.5,29.65,WSW,238,3.0,9.0,34,0.00,,SKC,0.00,VWS V14.01,2013-03-15 17:28:00,
2013-03-15 12:33:00,75.9,46.3,29.65,SW,227,0.0,10.0,35,0.00,,SKC,0.00,VWS V14.01,2013-03-15 17:33:00,
2013-03-15 12:38:00,77.2,45.9,29.65,SW,234,0.0,10.0,33,0.00,,SKC,0.00,VWS V14.01,2013-03-15 17:38:00,
2013-03-15 12:43:00,77.8,44.8,29.65,SW,228,1.0,11.0,31,0.00,,SKC,0.00,VWS V14.01,2013-03-15 17:43:00,
2013-03-15 12:48:00,77.7,44.7,29.65,WSW,242,3.0,9.0,31,0.00,,SKC,0.00,VWS V14.01,2013-03-15 17:48:00,
2013-03-15 12:53:00,77.4,44.4,29.64,SW,234,0.0,13.0,31,0.00,,SKC,0.00,VWS V14.01,2013-03-15 17:53:00,
2013-03-15 12:58:00,78.2,45.1,29.64,WSW,248,0.0,10.0,31,0.00,,SKC,0.00,VWS V14.01,2013-03-15 17:58:00,
2013-03-15 13:03:00,78.2,43.4,29.64,SW,229,7.0,12.0,29,0.00,,SKC,0.00,VWS V14.01,2013-03-15 18:03:00,
2013-03-15 13:08:00,78.0,43.2,29.63,WSW,250,3.0,9.0,29,0.00,,SKC,0.00,VWS V14.01,2013-03-15 18:08:00,
2013-03-15 13:13:00,78.3,44.3,29.63,WSW,244,4.0,9.0,30,0.00,,SKC,0.00,VWS V14.01,2013-03-15 18:13:00,
2013-03-15 13:18:00,78.7,43.8,29.63,WSW,249,0.0,8.0,29,0.00,,SKC,0.00,VWS V14.01,2013-03-15 18:18:00,
2013-03-15 13:23:00,79.1,43.2,29.63,West,264,0.0,10.0,28,0.00,,SKC,0.00,VWS V14.01,2013-03-15 18:23:00,
2013-03-15 13:28:00,79.7,43.8,29.62,West,261,1.0,11.0,28,0.00,,SKC,0.00,VWS V14.01,2013-03-15 18:28:00,
2013-03-15 13:33:00,80.2,44.2,29.62,WSW,243,4.0,13.0,28,0.00,,SKC,0.00,VWS V14.01,2013-03-15 18:33:00,
2013-03-15 13:38:00,80.7,42.7,29.62,WSW,238,4.0,13.0,26,0.00,,SKC,0.00,VWS V14.01,2013-03-15 18:38:00,
2013-03-15 13:43:00,81.0,43.9,29.62,SW,235,0.0,13.0,27,0.00,,SKC,0.00,VWS V14.01,2013-03-15 18:43:00,
2013-03-15 13:48:00,81.6,43.4,29.61,WSW,245,0.0,12.0,26,0.00,,SKC,0.00,VWS V14.01,2013-03-15 18:48:00,
2013-03-15 13:53:00,82.3,43.0,29.61,WSW,244,3.0,12.0,25,0.00,,SKC,0.00,VWS V14.01,2013-03-15 18:53:00,
2013-03-15 13:58:00,82.6,43.2,29.61,WSW,243,5.0,11.0,25,0.00,,SKC,0.00,VWS V14.01,2013-03-15 18:58:00,
2013-03-15 14:04:00,82.5,43.2,29.61,WSW,250,0.0,12.0,25,0.00,,SKC,0.00,VWS V14.01,2013-03-15 19:04:00,
2013-03-15 14:09:00,83.0,43.6,29.60,SW,234,1.0,12.0,25,0.00,,SKC,0.00,VWS V14.01,2013-03-15 19:09:00,
2013-03-15 14:14:00,83.4,43.9,29.60,WSW,238,7.0,12.0,25,0.00,,SKC,0.00,VWS V14.01,2013-03-15 19:14:00,
2013-03-15 14:19:00,83.8,43.2,29.60,SW,236,6.0,11.0,24,0.00,,SKC,0.00,VWS V14.01,2013-03-15 19:19:00,
2013-03-15 14:24:00,83.8,42.1,29.59,SW,224,9.0,14.0,23,0.00,,SKC,0.00,VWS V14.01,2013-03-15 19:24:00,
2013-03-15 14:29:00,83.7,42.0,29.59,West,269,5.0,14.0,23,0.00,,SKC,0.00,VWS V14.01,2013-03-15 19:29:00,
2013-03-15 14:34:00,83.3,42.8,29.58,West,259,7.0,14.0,24,0.00,,SKC,0.00,VWS V14.01,2013-03-15 19:34:00,
2013-03-15 14:39:00,83.8,42.1,29.58,WSW,248,4.0,14.0,23,0.00,,SKC,0.00,VWS V14.01,2013-03-15 19:39:00,
2013-03-15 14:44:00,84.0,42.3,29.58,WSW,255,1.0,14.0,23,0.00,,SKC,0.00,VWS V14.01,2013-03-15 19:44:00,
2013-03-15 14:49:00,84.0,41.1,29.58,WSW,245,5.0,13.0,22,0.00,,SKC,0.00,VWS V14.01,2013-03-15 19:49:00,
2013-03-15 14:54:00,83.8,40.9,29.58,West,263,0.0,16.0,22,0.00,,SKC,0.00,VWS V14.01,2013-03-15 19:54:00,
2013-03-15 14:59:00,83.6,43.0,29.57,WSW,248,4.0,9.0,24,0.00,,SKC,0.00,VWS V14.01,2013-03-15 19:59:00,
2013-03-15 15:04:00,83.4,41.8,29.57,WSW,250,0.0,11.0,23,0.00,,SKC,0.00,VWS V14.01,2013-03-15 20:04:00,
2013-03-15 15:09:00,83.2,41.6,29.57,WSW,240,12.0,12.0,23,0.00,,SKC,0.00,VWS V14.01,2013-03-15 20:09:00,
2013-03-15 15:14:00,82.9,41.3,29.56,WSW,241,0.0,13.0,23,0.00,,SKC,0.00,VWS V14.01,2013-03-15 20:14:00,
2013-03-15 15:19:00,82.9,41.3,29.56,West,269,10.0,13.0,23,0.00,,SKC,0.00,VWS V14.01,2013-03-15 20:19:00,
2013-03-15 15:24:00,82.8,41.3,29.56,West,277,5.0,13.0,23,0.00,,SKC,0.00,VWS V14.01,2013-03-15 20:24:00,
2013-03-15 15:29:00,82.7,41.2,29.55,WSW,258,7.0,16.0,23,0.00,,SKC,0.00,VWS V14.01,2013-03-15 20:29:00,
2013-03-15 15:34:00,82.4,42.0,29.55,West,268,0.0,1.0,24,0.00,,SKC,0.00,VWS V14.01,2013-03-15 20:34:00,
2013-03-15 15:39:00,82.2,40.8,29.55,West,265,0.0,11.0,23,0.00,,SKC,0.00,VWS V14.01,2013-03-15 20:39:00,
2013-03-15 15:44:00,81.9,41.6,29.55,West,260,1.0,14.0,24,0.00,,SKC,0.00,VWS V14.01,2013-03-15 20:44:00,
2013-03-15 15:49:00,81.8,41.5,29.55,WSW,246,4.0,12.0,24,0.00,,SKC,0.00,VWS V14.01,2013-03-15 20:49:00,
2013-03-15 15:54:00,82.3,41.9,29.54,WSW,255,11.0,11.0,24,0.00,,SKC,0.00,VWS V14.01,2013-03-15 20:54:00,
2013-03-15 15:59:00,82.7,43.3,29.54,WSW,254,0.0,11.0,25,0.00,,SKC,0.00,VWS V14.01,2013-03-15 20:59:00,
2013-03-15 16:04:00,83.2,41.6,29.54,WSW,242,3.0,6.0,23,0.00,,SKC,0.00,VWS V14.01,2013-03-15 21:04:00,
2013-03-15 16:09:00,83.3,41.7,29.54,WSW,256,1.0,10.0,23,0.00,,SKC,0.00,VWS V14.01,2013-03-15 21:09:00,
2013-03-15 16:14:00,83.3,41.7,29.54,West,263,9.0,9.0,23,0.00,,SKC,0.00,VWS V14.01,2013-03-15 21:14:00,
2013-03-15 16:19:00,83.2,41.6,29.53,West,277,1.0,9.0,23,0.00,,SKC,0.00,VWS V14.01,2013-03-15 21:19:00,
2013-03-15 16:24:00,83.0,42.5,29.53,WSW,254,0.0,0.0,24,0.00,,SKC,0.00,VWS V14.01,2013-03-15 21:24:00,
2013-03-15 16:29:00,82.9,42.4,29.53,WSW,241,11.0,11.0,24,0.00,,SKC,0.00,VWS V14.01,2013-03-15 21:29:00,
2013-03-15 16:34:00,82.7,42.3,29.53,West,263,0.0,1.0,24,0.00,,SKC,0.00,VWS V14.01,2013-03-15 21:34:00,
2013-03-15 16:39:00,82.6,42.2,29.52,West,265,5.0,7.0,24,0.00,,SKC,0.00,VWS V14.01,2013-03-15 21:39:00,
2013-03-15 16:44:00,82.4,43.1,29.53,West,277,5.0,5.0,25,0.00,,SKC,0.00,VWS V14.01,2013-03-15 21:44:00,
2013-03-15 16:49:00,82.1,43.8,29.52,West,266,2.0,5.0,26,0.00,,SKC,0.00,VWS V14.01,2013-03-15 21:49:00,
2013-03-15 16:54:00,81.8,42.6,29.52,WSW,257,0.0,5.0,25,0.00,,SKC,0.00,VWS V14.01,2013-03-15 21:54:00,
2013-03-15 16:59:00,81.5,42.3,29.52,West,259,0.0,5.0,25,0.00,,SKC,0.00,VWS V14.01,2013-03-15 21:59:00,
2013-03-15 17:04:00,81.4,43.3,29.52,West,263,0.0,0.0,26,0.00,,SKC,0.00,VWS V14.01,2013-03-15 22:04:00,
2013-03-15 17:09:00,81.3,43.2,29.52,WSW,257,0.0,10.0,26,0.00,,SKC,0.00,VWS V14.01,2013-03-15 22:09:00,
2013-03-15 17:14:00,81.3,43.2,29.52,West,265,3.0,3.0,26,0.00,,SKC,0.00,VWS V14.01,2013-03-15 22:14:00,
2013-03-15 17:19:00,81.4,43.3,29.51,West,265,0.0,3.0,26,0.00,,SKC,0.00,VWS V14.01,2013-03-15 22:19:00,
2013-03-15 17:24:00,81.5,43.3,29.51,West,280,0.0,0.0,26,0.00,,SKC,0.00,VWS V14.01,2013-03-15 22:24:00,
2013-03-15 17:29:00,81.7,43.5,29.51,West,269,0.0,6.0,26,0.00,,SKC,0.00,VWS V14.01,2013-03-15 22:29:00,
2013-03-15 17:34:00,81.9,43.7,29.50,WSW,257,1.0,1.0,26,0.00,,SKC,0.00,VWS V14.01,2013-03-15 22:34:00,
2013-03-15 17:39:00,81.9,42.7,29.50,West,263,0.0,2.0,25,0.00,,SKC,0.00,VWS V14.01,2013-03-15 22:39:00,
2013-03-15 17:44:00,81.8,43.6,29.50,West,267,0.0,0.0,26,0.00,,SKC,0.00,VWS V14.01,2013-03-15 22:44:00,
2013-03-15 17:49:00,81.6,42.4,29.50,WSW,238,0.0,6.0,25,0.00,,SKC,0.00,VWS V14.01,2013-03-15 22:49:00,
2013-03-15 17:54:00,81.5,43.3,29.50,WSW,242,1.0,1.0,26,0.00,,SKC,0.00,VWS V14.01,2013-03-15 22:54:00,
2013-03-15 18:02:00,81.5,41.3,29.49,SW,236,0.0,0.0,24,0.00,,SKC,0.00,VWS V14.01,2013-03-15 23:02:00,
2013-03-15 18:07:00,81.9,40.5,29.49,WSW,237,0.0,7.0,23,0.00,,SKC,0.00,VWS V14.01,2013-03-15 23:07:00,
2013-03-15 18:12:00,82.3,40.8,29.50,SW,232,0.0,12.0,23,0.00,,SKC,0.00,VWS V14.01,2013-03-15 23:12:00,
2013-03-15 18:17:00,82.5,41.0,29.49,WSW,241,2.0,9.0,23,0.00,,SKC,0.00,VWS V14.01,2013-03-15 23:17:00,
2013-03-15 18:22:00,82.6,41.1,29.49,WSW,251,3.0,9.0,23,0.00,,SKC,0.00,VWS V14.01,2013-03-15 23:22:00,
2013-03-15 18:27:00,82.6,41.1,29.49,WSW,240,0.0,8.0,23,0.00,,SKC,0.00,VWS V14.01,2013-03-15 23:27:00,
2013-03-15 18:33:00,82.5,41.0,29.49,WSW,239,0.0,8.0,23,0.00,,SKC,0.00,VWS V14.01,2013-03-15 23:33:00,
2013-03-15 18:38:00,82.5,42.1,29.49,WSW,239,0.0,1.0,24,0.00,,SKC,0.00,VWS V14.01,2013-03-15 23:38:00,
2013-03-15 18:43:00,82.4,42.0,29.49,SW,231,0.0,6.0,24,0.00,,SKC,0.00,VWS V14.01,2013-03-15 23:43:00,
2013-03-15 18:48:00,82.2,41.8,29.49,WSW,240,2.0,6.0,24,0.00,,SKC,0.00,VWS V14.01,2013-03-15 23:48:00,
2013-03-15 18:53:00,82.1,41.8,29.49,SW,235,0.0,6.0,24,0.00,,SKC,0.00,VWS V14.01,2013-03-15 23:53:00,
2013-03-15 18:58:00,81.7,41.4,29.49,WSW,245,0.0,10.0,24,0.00,,SKC,0.00,VWS V14.01,2013-03-15 23:58:00,
2013-03-15 19:03:00,81.2,42.1,29.49,SW,235,0.0,10.0,25,0.00,,SKC,0.00,VWS V14.01,2013-03-16 00:03:00,
2013-03-15 19:08:00,80.5,41.5,29.49,SW,226,0.0,4.0,25,0.00,,SKC,0.00,VWS V14.01,2013-03-16 00:08:00,
2013-03-15 19:13:00,79.8,41.9,29.49,SW,226,0.0,4.0,26,0.00,,SKC,0.00,VWS V14.01,2013-03-16 00:13:00,
2013-03-15 19:18:00,79.1,42.3,29.49,SW,229,0.0,3.0,27,0.00,,SKC,0.00,VWS V14.01,2013-03-16 00:18:00,
2013-03-15 19:23:00,78.4,41.7,29.49,SW,229,0.0,3.0,27,0.00,,SKC,0.00,VWS V14.01,2013-03-16 00:23:00,
2013-03-15 19:28:00,77.8,42.1,29.49,SW,229,0.0,1.0,28,0.00,,SKC,0.00,VWS V14.01,2013-03-16 00:28:00,
2013-03-15 19:33:00,77.1,42.4,29.49,SW,229,0.0,1.0,29,0.00,,SKC,0.00,VWS V14.01,2013-03-16 00:33:00,
2013-03-15 19:38:00,76.4,41.8,29.49,SW,228,0.0,2.0,29,0.00,,SKC,0.00,VWS V14.01,2013-03-16 00:38:00,
2013-03-15 19:43:00,75.7,42.1,29.49,SW,229,0.0,2.0,30,0.00,,SKC,0.00,VWS V14.01,2013-03-16 00:43:00,
2013-03-15 19:48:00,75.1,42.4,29.49,SW,228,0.0,0.0,31,0.00,,SKC,0.00,VWS V14.01,2013-03-16 00:48:00,
2013-03-15 19:53:00,74.5,41.9,29.49,SW,228,0.0,0.0,31,0.00,,SKC,0.00,VWS V14.01,2013-03-16 00:53:00,
2013-03-15 19:58:00,73.7,42.0,29.49,SW,224,0.0,4.0,32,0.00,,SKC,0.00,VWS V14.01,2013-03-16 00:58:00,
2013-03-15 20:03:00,72.9,42.1,29.49,SW,223,3.0,4.0,33,0.00,,SKC,0.00,VWS V14.01,2013-03-16 01:03:00,
2013-03-15 20:08:00,72.2,42.3,29.49,SW,221,0.0,5.0,34,0.00,,SKC,0.00,VWS V14.01,2013-03-16 01:08:00,
2013-03-15 20:13:00,71.7,41.9,29.49,SW,221,0.0,5.0,34,0.00,,SKC,0.00,VWS V14.01,2013-03-16 01:13:00,
2013-03-15 20:18:00,71.5,42.4,29.49,SW,215,0.0,4.0,35,0.00,,SKC,0.00,VWS V14.01,2013-03-16 01:18:00,
2013-03-15 20:23:00,71.3,42.3,29.49,SW,223,1.0,5.0,35,0.00,,SKC,0.00,VWS V14.01,2013-03-16 01:23:00,
2013-03-15 20:28:00,71.2,42.9,29.49,SW,221,0.0,4.0,36,0.00,,SKC,0.00,VWS V14.01,2013-03-16 01:28:00,
2013-03-15 20:33:00,71.1,42.1,29.49,SW,221,0.0,4.0,35,0.00,,SKC,0.00,VWS V14.01,2013-03-16 01:33:00,
2013-03-15 20:38:00,70.8,42.5,29.49,SW,221,0.0,1.0,36,0.00,,SKC,0.00,VWS V14.01,2013-03-16 01:38:00,
2013-03-15 20:43:00,70.4,42.2,29.49,SW,225,0.0,4.0,36,0.00,,SKC,0.00,VWS V14.01,2013-03-16 01:43:00,
2013-03-15 20:48:00,70.2,42.7,29.49,WSW,238,0.0,5.0,37,0.00,,SKC,0.00,VWS V14.01,2013-03-16 01:48:00,
2013-03-15 20:53:00,69.9,43.2,29.49,WSW,238,0.0,5.0,38,0.00,,SKC,0.00,VWS V14.01,2013-03-16 01:53:00,
2013-03-15 20:58:00,69.8,43.1,29.50,WSW,238,3.0,4.0,38,0.00,,SKC,0.00,VWS V14.01,2013-03-16 01:58:00,
2013-03-15 21:03:00,69.5,42.8,29.50,WSW,238,0.0,4.0,38,0.00,,SKC,0.00,VWS V14.01,2013-03-16 02:03:00,
2013-03-15 21:08:00,69.2,43.2,29.50,WSW,238,0.0,0.0,39,0.00,,SKC,0.00,VWS V14.01,2013-03-16 02:08:00,
2013-03-15 21:13:00,68.9,43.0,29.50,WSW,238,0.0,0.0,39,0.00,,SKC,0.00,VWS V14.01,2013-03-16 02:13:00,
2013-03-15 21:18:00,68.5,43.2,29.51,WSW,238,0.0,0.0,40,0.00,,SKC,0.00,VWS V14.01,2013-03-16 02:18:00,
2013-03-15 21:23:00,68.0,42.8,29.51,WSW,245,0.0,3.0,40,0.00,,SKC,0.00,VWS V14.01,2013-03-16 02:23:00,
2013-03-15 21:28:00,67.2,42.7,29.51,WNW,284,0.0,7.0,41,0.00,,SKC,0.00,VWS V14.01,2013-03-16 02:28:00,
2013-03-15 21:33:00,66.4,43.2,29.51,WNW,286,0.0,7.0,43,0.00,,SKC,0.00,VWS V14.01,2013-03-16 02:33:00,
2013-03-15 21:38:00,65.9,42.8,29.52,WNW,286,0.0,0.0,43,0.00,,SKC,0.00,VWS V14.01,2013-03-16 02:38:00,
2013-03-15 21:43:00,65.4,42.9,29.52,WNW,286,0.0,1.0,44,0.00,,SKC,0.00,VWS V14.01,2013-03-16 02:43:00,
2013-03-15 21:48:00,65.0,43.2,29.53,WNW,286,0.0,1.0,45,0.00,,SKC,0.00,VWS V14.01,2013-03-16 02:48:00,
2013-03-15 21:53:00,64.9,43.1,29.53,WNW,286,0.0,1.0,45,0.00,,SKC,0.00,VWS V14.01,2013-03-16 02:53:00,
2013-03-15 21:58:00,65.1,43.3,29.53,WNW,286,0.0,0.0,45,0.00,,SKC,0.00,VWS V14.01,2013-03-16 02:58:00,
2013-03-15 22:03:00,65.4,42.9,29.53,WNW,297,0.0,6.0,44,0.00,,SKC,0.00,VWS V14.01,2013-03-16 03:03:00,
2013-03-15 22:08:00,65.7,43.2,29.53,WNW,297,0.0,0.0,44,0.00,,SKC,0.00,VWS V14.01,2013-03-16 03:08:00,
2013-03-15 22:13:00,65.8,43.3,29.53,WNW,297,0.0,1.0,44,0.00,,SKC,0.00,VWS V14.01,2013-03-16 03:13:00,
2013-03-15 22:18:00,65.9,43.4,29.53,WNW,297,0.0,0.0,44,0.00,,SKC,0.00,VWS V14.01,2013-03-16 03:18:00,
2013-03-15 22:23:00,66.0,43.5,29.54,WNW,297,0.0,1.0,44,0.00,,SKC,0.00,VWS V14.01,2013-03-16 03:23:00,
2013-03-15 22:28:00,65.9,43.4,29.54,WNW,297,0.0,0.0,44,0.00,,SKC,0.00,VWS V14.01,2013-03-16 03:28:00,
2013-03-15 22:33:00,65.3,43.4,29.55,WNW,297,0.0,1.0,45,0.00,,SKC,0.00,VWS V14.01,2013-03-16 03:33:00,
2013-03-15 22:38:00,64.4,42.6,29.55,WNW,297,0.0,0.0,45,0.00,,SKC,0.00,VWS V14.01,2013-03-16 03:38:00,
2013-03-15 22:43:00,63.6,42.5,29.55,NNW,329,0.0,5.0,46,0.00,,SKC,0.00,VWS V14.01,2013-03-16 03:43:00,
2013-03-15 22:48:00,62.9,42.9,29.55,NNW,342,0.0,5.0,48,0.00,,SKC,0.00,VWS V14.01,2013-03-16 03:48:00,
2013-03-15 22:53:00,62.3,43.4,29.55,North,11,0.0,6.0,50,0.00,,SKC,0.00,VWS V14.01,2013-03-16 03:53:00,
2013-03-15 22:58:00,61.5,43.7,29.55,NNE,13,0.0,10.0,52,0.00,,SKC,0.00,VWS V14.01,2013-03-16 03:58:00,
2013-03-15 23:00:00,61.3,43.5,29.55,NNE,13,0.0,10.0,52,0.00,,SKC,0.00,VWS V14.01,2013-03-16 04:00:00,
2013-03-15 23:02:00,61.0,43.3,29.55,NNE,17,3.0,10.0,52,0.00,,SKC,0.00,VWS V14.01,2013-03-16 04:02:00,
2013-03-15 23:07:00,60.3,43.6,29.56,NNE,19,3.0,7.0,54,0.00,,SKC,0.00,VWS V14.01,2013-03-16 04:07:00,
2013-03-15 23:12:00,59.6,43.4,29.56,NNE,22,5.0,12.0,55,0.00,,SKC,0.00,VWS V14.01,2013-03-16 04:12:00,
2013-03-15 23:17:00,59.0,43.8,29.56,North,11,0.0,11.0,57,0.00,,SKC,0.00,VWS V14.01,2013-03-16 04:17:00,
2013-03-15 23:22:00,58.9,43.7,29.56,NNE,31,4.0,12.0,57,0.00,,SKC,0.00,VWS V14.01,2013-03-16 04:22:00,
2013-03-15 23:27:00,58.2,44.0,29.56,NNE,22,4.0,7.0,59,0.00,,SKC,0.00,VWS V14.01,2013-03-16 04:27:00,
2013-03-15 23:32:00,57.8,44.0,29.56,North,355,4.0,9.0,60,0.00,,SKC,0.00,VWS V14.01,2013-03-16 04:32:00,
2013-03-15 23:37:00,57.2,43.9,29.56,NE,36,6.0,10.0,61,0.00,,SKC,0.00,VWS V14.01,2013-03-16 04:37:00,
2013-03-15 23:42:00,56.6,43.8,29.57,NNE,17,5.0,11.0,62,0.00,,SKC,0.00,VWS V14.01,2013-03-16 04:42:00,
2013-03-15 23:47:00,56.1,43.7,29.57,NNE,28,6.0,11.0,63,0.00,,SKC,0.00,VWS V14.01,2013-03-16 04:47:00,
2013-03-15 23:52:00,55.6,44.0,29.56,NE,34,6.0,13.0,65,0.00,,SKC,0.00,VWS V14.01,2013-03-16 04:52:00,
2013-03-15 23:57:00,55.1,44.0,29.57,NNE,28,5.0,10.0,66,0.00,,SKC,0.00,VWS V14.01,2013-03-16 04:57:00,